• Processing (Info)

  • MPEC 2016-J118: 2016 JW28

    The following Minor Planet Electronic Circular may be linked-to from your own Web pages, but must not otherwise be redistributed electronically.

    A form allowing access to any MPEC is at the bottom of this page.


    Read MPEC 2016-J117 Read MPEC 2016-J119


    M.P.E.C. 2016-J118                               Issued 2016 May 12, 18:00 UT
    
         The Minor Planet Electronic Circulars contain information on unusual
             minor planets and routine data on comets.  They are published
        on behalf of Division F of the International Astronomical Union by the
              Minor Planet Center, Smithsonian Astrophysical Observatory,
                              Cambridge, MA 02138, U.S.A.
    
                 Prepared using the Tamkin Foundation Computer Network
    
                                  MPC@CFA.HARVARD.EDU
                URL https://www.minorplanetcenter.net/    ISSN 1523-6714
    
                                       2016 JW28
    
    Observations:
         K16J28W* C2016 05 11.19106 12 03 28.90 +07 23 22.2          19.4 VqEJ118703
         K16J28W  C2016 05 11.19708 12 03 19.76 +07 25 09.5          19.5 VqEJ118703
         K16J28W  C2016 05 11.20308 12 03 10.56 +07 26 55.6          19.2 VqEJ118703
         K16J28W  C2016 05 11.20909 12 03 01.30 +07 28 42.3          20.2 VqEJ118703
         K16J28W  C2016 05 11.25357 12 01 52.26 +07 42 03.9                qEJ118703
         K16J28W  C2016 05 11.25395 12 01 51.79 +07 42 10.9          18.8 VqEJ118703
         K16J28W  C2016 05 11.26044 12 01 41.52 +07 44 09.1          19.7 VqEJ118703
         K16J28W  C2016 05 11.26088 12 01 40.82 +07 44 16.2          19.4 VqEJ118703
         K16J28W  C2016 05 11.26132 12 01 40.19 +07 44 25.2          19.3 VqEJ118703
         K16J28W  C2016 05 11.31636 12 00 13.71 +08 01 17.1                qEJ118I52
         K16J28W  C2016 05 11.31679 12 00 13.07 +08 01 25.0          19.2 VqEJ118I52
         K16J28W  C2016 05 11.31721 12 00 12.41 +08 01 32.7          19.1 VqEJ118I52
         K16J28W  C2016 05 11.31762 12 00 11.73 +08 01 40.5          19.0 VqEJ118I52
         K16J28W  C2016 05 11.56347 11 53 46.02 +09 22 51.3          19.8 RoEJ118300
         K16J28W  C2016 05 11.56555 11 53 42.26 +09 23 34.0          19.3 RoEJ118300
         K16J28W  C2016 05 11.56762 11 53 38.58 +09 24 19.1          19.5 RoEJ118300
         K16J28W  C2016 05 11.56972 11 53 34.79 +09 25 01.3          19.3 RoEJ118300
         K16J28W  C2016 05 11.57180 11 53 30.97 +09 25 45.6          19.2 RoEJ118300
         K16J28W  C2016 05 11.57388 11 53 27.27 +09 26 29.3          19.5 RoEJ118300
         K16J28W  C2016 05 11.84131 11 45 28.58 +11 04 26.7          19.8 VSEJ118033
         K16J28W  C2016 05 11.84244 11 45 26.26 +11 04 53.5          19.6 VSEJ118033
         K16J28W  C2016 05 11.84358 11 45 23.93 +11 05 20.2          19.3 VSEJ118033
         K16J28W KC2016 05 11.91018 11 43 07.54 +11 32 29.0          19.0 VqEJ118I93
         K16J28W  C2016 05 11.91128 11 43 03.00 +11 32 18.0          19.6 VSEJ118033
         K16J28W  C2016 05 11.91229 11 43 00.84 +11 32 42.7          19.8 VSEJ118033
         K16J28W  C2016 05 11.91331 11 42 58.71 +11 33 07.3          19.7 VSEJ118033
         K16J28W  C2016 05 11.91433 11 42 56.57 +11 33 31.9          19.7 VSEJ118033
         K16J28W KC2016 05 11.91633 11 42 54.43 +11 34 58.0          19.4 VqEJ118I93
         K16J28W KC2016 05 11.92229 11 42 41.63 +11 37 23.2          19.3 VqEJ118I93
         K16J28W  C2016 05 12.15530 11 34 24.72 +13 19 07.0          18.9 RoEJ118926
         K16J28W  C2016 05 12.15654 11 34 21.68 +13 19 40.2          19.0 RoEJ118926
         K16J28W  C2016 05 12.15778 11 34 18.60 +13 20 14.4          19.0 RoEJ118926
         K16J28W  C2016 05 12.16759 11 33 54.43 +13 24 41.1          19.3 RuEJ118926
         K16J28W  C2016 05 12.16993 11 33 48.67 +13 25 45.3          19.1 RuEJ118926
         K16J28W  C2016 05 12.17226 11 33 42.87 +13 26 49.0          19.5 RuEJ118926
         K16J28W  C2016 05 12.20327 11 32 25.49 +13 40 54.9          19.1 VqEJ118G96
         K16J28W  C2016 05 12.20505 11 32 21.04 +13 41 43.9          19.0 VqEJ118G96
         K16J28W  C2016 05 12.20683 11 32 16.54 +13 42 32.9          18.9 VqEJ118G96
         K16J28W  C2016 05 12.20860 11 32 12.07 +13 43 22.2          19.2 VqEJ118G96
         K16J28W  C2016 05 12.24527 11 30 38.91 +14 00 30.0          19.1 RuEJ118926
         K16J28W  C2016 05 12.24760 11 30 33.03 +14 01 34.2          19.2 RuEJ118926
         K16J28W  C2016 05 12.24993 11 30 27.13 +14 02 38.8          18.9 RuEJ118926
         K16J28W  C2016 05 12.30044 11 28 16.78 +14 26 28.1          19.2 RuEJ118926
         K16J28W  C2016 05 12.30278 11 28 10.75 +14 27 34.0          19.1 RuEJ118926
         K16J28W  C2016 05 12.30512 11 28 04.77 +14 28 40.4          19.2 RuEJ118926
         K16J28W  C2016 05 12.60931 11 14 10.18 +17 05 47.1          19.2 RoEJ118300
         K16J28W  C2016 05 12.61127 11 14 04.14 +17 06 49.6          19.0 RoEJ118300
         K16J28W  C2016 05 12.61323 11 13 58.05 +17 07 54.7          19.4 RoEJ118300
         K16J28W  C2016 05 12.61519 11 13 51.97 +17 08 58.1          19.1 RoEJ118300
         K16J28W  C2016 05 12.61715 11 13 45.90 +17 10 01.7          19.5 RoEJ118300
    
    Observer details:
    033 Karl Schwarzschild Observatory, Tautenburg.  Observers B. Stecklum,
        U. Laux.  Measurer B. Stecklum.  1.34-m f/3 Schmidt + CCD.
    300 Bisei Spaceguard Center--BATTeRS.  Observers K. Nishiyama, A. Asami.
        1.0-m f/3.0 reflector + CCD.
    703 Catalina Sky Survey.  Observer J. A. Johnson.  Measurers E. J. Christensen,
        D. C. Fuls, A. R. Gibbs, A. D. Grauer, J. A. Johnson, R. A. Kowalski,
        S. M. Larson, G. J. Leonard, R. G. Matheny, R. L. Seaman, F. C. Shelly.
        0.68-m Schmidt + CCD.
    926 Tenagra II Observatory.  Observers M. Schwartz, P. R. Holvorcem.  Measurer
        M. Schwartz.  0.41-m f/3.75 astrograph + CCD, 0.81-m f/7 Ritchey-Chretien
        + CCD.
    G96 Mt. Lemmon Survey.  Observer R. G. Matheny.  Measurers E. J. Christensen,
        D. C. Fuls, A. R. Gibbs, A. D. Grauer, J. A. Johnson, R. A. Kowalski,
        S. M. Larson, G. J. Leonard, R. G. Matheny, R. L. Seaman, F. C. Shelly.
        1.5-m reflector + CCD.
    I52 Steward Observatory, Mt. Lemmon Station.  Observer E. J. Christensen.
        Measurers E. J. Christensen, D. C. Fuls, A. R. Gibbs, A. D. Grauer,
        J. A. Johnson, R. A. Kowalski, S. M. Larson, G. J. Leonard, R. G. Matheny,
        R. L. Seaman, F. C. Shelly.  1.0-m reflector + CCD.
    I93 St Pardon de Conques.  Observer F. Losse.  0.40-m f/3.7 reflector + CCD.
    
    Orbital elements:
    2016 JW28                                                Earth MOID = 0.0041 AU
    Epoch 2016 July 31.0 TT = JDT 2457600.5                 MPC
    M  13.67050              (2000.0)            P               Q
    n   0.32877144     Peri.   65.51490     +0.21628310     +0.97628463
    a   2.0790902      Node   216.97991     -0.90137635     +0.19593692
    e   0.5782176      Incl.    0.90333     -0.37515637     +0.09207084
    P   3.00           H   25.5           G   0.15           U   6
    Residuals in seconds of arc
    160511 703  1.5-  1.0+    160511 300  0.2-  0.5+    160512 926  0.2-  0.1-
    160511 703  0.2-  1.2+    160511 300  0.6+  0.9+    160512 G96  0.2-  0.2+
    160511 703  0.0   0.3+    160511 033  0.2+  0.5-    160512 G96  0.1+  0.0
    160511 703  0.1-  0.3-    160511 033  0.1+  0.3-    160512 G96  0.2-  0.1-
    160511 703  0.3-  0.3-    160511 033  0.2+  0.5-    160512 G96  0.4-  0.2+
    160511 703  1.5+  0.2-    160511 I93  0.0   0.4-    160512 926  0.9-  1.0+
    160511 703  0.4-  0.0     160511 033  0.4-  0.0     160512 926  0.2+  0.0
    160511 703  0.6-  0.9-    160511 033  0.9-  0.3+    160512 926  1.1+  0.7-
    160511 703  0.3+  0.1+    160511 033  0.5-  0.2+    160512 926  0.8-  0.5+
    160511 I52  0.1-  0.0     160511 033  0.4-  0.1+    160512 926  0.1-  0.3-
    160511 I52  0.5+  0.0     160511 I93  0.1+  0.6-    160512 926  1.3+  0.7-
    160511 I52  0.5+  0.1-    160511 I93  0.8-  0.3-    160512 300  0.1-  0.6+
    160511 I52  0.0   0.0     160512 926  0.2-  0.3+    160512 300  0.3+  0.7-
    160511 300  0.0   0.6-    160512 926  0.1-  0.2-    160512 300  0.1+  0.6+
    160511 300  0.1-  1.1-    160512 926  0.5-  0.3+    160512 300  0.1+  0.2+
    160511 300  0.7+  1.0+    160512 926  0.2-  0.4-    160512 300  0.2+  0.1-
    160511 300  0.7+  0.5-    160512 926  0.2+  0.2-
    
    Ephemeris:
    2016 JW28                a,e,i = 2.08, 0.58, 1                   q = 0.8769
    Date    TT    R. A. (2000) Decl.     Delta      r     Elong.  Phase     V
    2016 04 12    13 34 09.0 -11 02 42   0.2503  1.2523   176.3     3.0    23.3
    ...
    2016 04 27    13 21 37.3 -08 54 35   0.1282  1.1310   165.2    13.1    22.1
    ...
    2016 05 05    13 03 02.8 -05 13 51   0.06961 1.0705   151.8    26.4    21.1
    ...
    2016 05 11    12 07 51.0 +06 30 54   0.02884 1.0282   128.4    50.4    19.7
    2016 05 12    11 40 10.2 +12 12 51   0.02291 1.0215   118.7    60.2    19.5
    2016 05 13    10 52 33.9 +21 01 22   0.01789 1.0148   103.6    75.5    19.4
    ...
    2016 05 19    03 00 39.9 +26 40 43   0.03515 0.9774    12.1   167.5    32.9
    ...
    2016 05 27    02 09 35.9 +18 12 05   0.09166 0.9349    29.9   147.3    28.1
    ...
    2016 06 11    02 04 24.9 +15 54 40   0.2056  0.8848    45.9   124.5    27.0
    
    A. U. Tomatic                (C) Copyright 2016 MPC           M.P.E.C. 2016-J118
    

    Read MPEC 2016-J117 Read MPEC 2016-J119


    MPEC number:

    Enter an MPEC number in one of the following forms:

    • 1997-B01 (the full form)
    • J97B01 (the packed version of the full form)
    • B01 (the abbreviated form)